AirNav   Everest Fuels
 
 773 users online  

03OH Gibbs Field Airport
Fremont, Ohio, USA

GOING TO FREMONT?


FAA INFORMATION EFFECTIVE 21 MAY 2020

Location

FAA Identifier: 03OH
Lat/Long: 41-25-06.1870N 083-01-02.6980W
41-25.103117N 083-01.044967W
41.4183853,-83.0174161
(estimated)
Elevation: 580 ft. / 177 m (estimated)
Variation: 05W (1985)
From city: 3 miles NE of FREMONT, OH
Time zone: UTC -4 (UTC -5 during Standard Time)
Zip code: 43420

Airport Operations

Airport use: Private use. Permission required prior to landing
Activation date: 02/1969
Control tower: no
ARTCC: CLEVELAND CENTER
FSS: CLEVELAND FLIGHT SERVICE STATION
Attendance: APR-DEC IREG IREG
Wind indicator: yes
Segmented circle: no

Airport Communications

WX AWOS-3 at S24 (7 nm S): 119.575 (419-547-6932)
WX AWOS-3 at PCW (9 nm NE): 118.775 (419-734-9955)

Nearby radio navigation aids

VOR radial/distance  VOR name  Freq  Var
MFDr333/38.2MANSFIELD VORTAC108.8003W
DJBr280/38.7DRYER VOR/DME113.6005W

 
NDB name  Hdg/Dist  Freq  Var  ID
PORT CLINTON235/9.042307WPCW .--. -.-. .--
TIFFIN030/21.426905WTII - .. ..

Airport Services

Airframe service: NONE
Powerplant service: NONE

Runway Information

Runway NE/SW

Dimensions: 2200 x 60 ft. / 671 x 18 m
Surface: turf
RUNWAY NE  RUNWAY SW
Traffic pattern: leftleft
Obstructions: noneplines

Runway N/S

Dimensions: 2100 x 60 ft. / 640 x 18 m
Surface: turf
RUNWAY N  RUNWAY S
Traffic pattern: leftleft
Obstructions: bldgsplines

Airport Ownership and Management from official FAA records

Ownership: Privately-owned
Owner: LUTHER A. GIBBS
2858 CR 265
FREMONT, OH 43420
Phone 419-332-1724
Manager: LUTHER A. GIBBS
2858 CR 265
FREMONT, OH 43420
Phone 419-332-1724

Airport Operational Statistics

Aircraft based on the field: 3
Single engine airplanes: 3
    

Additional Remarks

FOR CD CTC TOLEDO APCH AT 419-865-1495

Instrument Procedures

There are no published instrument procedures at 03OH.

Some nearby airports with instrument procedures:

S24 - Sandusky County Regional Airport (7 nm S)
14G - Fremont Airport (8 nm SW)
KPCW - Erie-Ottawa International Airport (9 nm NE)
16G - Seneca County Airport (21 nm SW)
KFZI - Fostoria Metropolitan Airport (22 nm SW)
 
Loc | Ops | Rwys | IFR | FBO | Links
Com | Nav | Svcs | Stats | Notes
Area around 03OH (Gibbs Field Airport)
 
Road maps at: MapQuest Bing Google
 
Aerial photo
WARNING: Photo may not be current or correct
Aerial photo of 03OH (Gibbs Field Airport)
Do you have a better or more recent aerial photo of Gibbs Field Airport that you would like to share? If so, please send us your photo.

 
Sectional chart

 
Airport distance calculator
Flying to Gibbs Field Airport? Find the distance to fly.

From to 03OH

Sunrise and sunset
Times for 30-May-2020
 Local
(UTC-4)
 Zulu
(UTC)
Morning civil twilight05:2909:29
Sunrise06:0210:02
Sunset20:5700:57
Evening civil twilight21:3001:30

Current date and time
Zulu (UTC)  30-May-2020 12:54:52
Local (UTC-4)  30-May-2020 08:54:52
 
METAR
KPCW 
9nm NE 
301235Z AUTO 29009KT 10SM CLR 15/12 A3007 RMK AO2
TAF
KTOL 
37nm W 
301131Z 3012/3112 28006KT P6SM SCT050 FM301600 32010G18KT P6SM SCT060 FM302200 32006KT P6SM SCT070
KFDY 
38nm SW 
301131Z 3012/3112 29007KT P6SM SCT060 FM301700 32010G18KT P6SM SCT060 FM302200 32007KT P6SM SCT070
KMFD 
43nm SE 
301131Z 3012/3112 29006KT P6SM SCT060 FM301600 31010G18KT P6SM BKN060 FM302300 32004KT P6SM SCT070 FM310500 34006KT P6SM BKN035
NOTAMs
Click for the latest NOTAMs
NOTAMs are issued by the DoD/FAA and will open in a separate window not controlled by AirNav.

 

 
 

Would you like to see your business listed on this page?

 If your business provides an interesting product or service to pilots, flight crews, aircraft, or users of the Gibbs Field Airport, you should consider listing it here.  To start the listing process, click on the button below
 
Add a business
 

Other Pages about Gibbs Field Airport

Update a link
 
Copyright © AirNav, LLC. All rights reserved. Privacy Policy  Contact